Total_Precipitation_Accumulation
2.42 2.50 2.43 2.37 2.36 2.30 2.33 2.54 2.72 2.52 2.27 2.04 1.91 1.89 1.94 1.92 2.00 1.77 1.72 1.59 1.39 1.39 1.46 1.51 1.72 2.02 2.27 2.50 2.73 2.72 2.95 3.16 3.25 3.42 3.51 3.45 3.44 3.34
2.42 2.54 2.57 2.52 2.54 2.50 2.41 2.42 2.41 2.47 2.31 2.03 1.85 1.81 2.00 1.93 2.09 1.78 1.72 1.89 1.63 1.54 1.48 1.37 1.38 1.43 1.53 1.77 2.11 2.28 2.33 2.41 2.51 2.81 3.12 3.21 3.15 3.02
2.20 2.32 2.47 2.52 2.63 2.69 2.72 2.63 2.52 2.49 2.37 2.10 1.90 1.82 2.05 2.10 2.04 1.96 1.80 1.73 1.72 1.71 1.58 1.50 1.42 1.29 1.32 1.42 1.68 1.93 2.15 2.03 1.87 2.02 2.31 2.49 2.75 2.87
2.12 2.07 2.14 2.23 2.35 2.51 2.63 2.61 2.62 2.53 2.46 2.40 2.18 1.94 1.88 1.97 2.06 2.18 2.05 1.81 1.77 1.89 1.78 1.66 1.57 1.42 1.30 1.28 1.39 1.50 1.70 1.79 1.60 1.48 1.63 1.81 2.02 2.29
1.96 1.85 1.82 1.92 2.06 2.21 2.28 2.40 2.55 2.60 2.62 2.56 2.45 2.23 1.98 1.99 2.08 2.15 2.16 2.22 1.96 1.90 1.87 1.80 1.72 1.65 1.53 1.34 1.25 1.27 1.31 1.43 1.44 1.31 1.27 1.44 1.59 1.79
1.68 1.59 1.58 1.61 1.74 1.91 2.03 2.23 2.46 2.59 2.66 2.65 2.59 2.32 2.11 2.07 2.06 2.12 2.25 2.31 2.25 2.01 1.92 1.79 1.84 1.78 1.61 1.47 1.33 1.28 1.31 1.36 1.40 1.40 1.25 1.20 1.29 1.37
1.49 1.31 1.26 1.34 1.39 1.52 1.53 1.81 2.10 2.34 2.44 2.50 2.50 2.33 2.09 1.99 1.85 1.92 2.08 2.27 2.30 2.23 2.17 1.88 1.77 1.69 1.63 1.60 1.49 1.39 1.34 1.41 1.44 1.47 1.46 1.31 1.26 1.25
1.35 1.22 1.15 1.17 1.12 1.15 1.20 1.44 1.74 1.92 2.07 2.23 2.30 2.17 1.98 1.87 1.93 1.94 1.96 2.00 2.03 1.92 1.94 1.96 1.84 1.73 1.65 1.60 1.63 1.58 1.47 1.44 1.50 1.49 1.55 1.51 1.42 1.42
1.28 1.30 1.18 1.10 1.21 1.08 1.07 1.16 1.26 1.41 1.57 1.81 2.00 1.97 2.06 1.97 1.87 1.79 1.80 1.84 1.84 1.88 1.90 1.93 1.79 1.68 1.56 1.53 1.70 1.60 1.57 1.54 1.56 1.62 1.58 1.64 1.60 1.55
1.33 1.41 1.41 1.30 1.28 1.37 1.29 1.27 1.21 1.17 1.30 1.22 1.38 1.76 1.93 2.01 1.96 1.97 2.06 1.98 1.80 1.79 1.83 1.89 1.73 1.61 1.47 1.38 1.52 1.43 1.36 1.37 1.48 1.67 1.77 1.78 1.84 1.79
1.22 1.36 1.42 1.34 1.46 1.59 1.62 1.62 1.51 1.32 1.48 1.51 1.40 1.50 1.70 1.78 1.88 1.92 1.96 1.90 1.81 1.69 1.57 1.59 1.51 1.50 1.52 1.43 1.39 1.46 1.38 1.33 1.29 1.32 1.43 1.53 1.69 1.88
1.25 1.29 1.50 1.42 1.44 1.44 1.46 1.56 1.51 1.33 1.19 1.20 1.19 1.11 1.07 1.20 1.45 1.54 1.79 1.93 1.87 1.75 1.53 1.51 1.55 1.54 1.54 1.39 1.27 1.32 1.34 1.42 1.39 1.30 1.32 1.40 1.52 1.60
1.34 1.37 1.35 1.51 1.38 1.32 1.29 1.25 1.35 1.35 1.33 1.36 1.40 1.27 1.18 1.15 1.18 1.23 1.45 1.70 1.86 1.74 1.57 1.50 1.55 1.56 1.47 1.28 1.19 1.19 1.21 1.22 1.26 1.32 1.37 1.47 1.54 1.50
1.16 1.17 1.14 1.30 1.16 1.10 1.03 1.07 1.19 1.25 1.30 1.44 1.43 1.35 1.31 1.25 1.23 1.26 1.34 1.44 1.53 1.61 1.65 1.65 1.62 1.56 1.49 1.30 1.21 1.18 1.18 1.17 1.14 1.18 1.21 1.46 1.60 1.67
0.88 1.04 1.08 1.07 1.01 0.93 0.99 1.04 1.06 1.09 1.20 1.30 1.30 1.23 1.22 1.29 1.32 1.30 1.34 1.39 1.37 1.31 1.34 1.43 1.57 1.61 1.56 1.43 1.24 1.21 1.23 1.18 1.12 1.12 1.15 1.20 1.26 1.42
0.82 0.92 0.96 0.92 0.91 0.91 0.95 0.99 1.02 1.07 1.15 1.19 1.18 1.19 1.20 1.27 1.36 1.33 1.33 1.42 1.49 1.38 1.30 1.36 1.47 1.62 1.59 1.44 1.37 1.29 1.28 1.28 1.19 1.15 1.12 1.15 1.23 1.31
0.94 0.89 0.88 0.86 0.87 0.93 0.95 0.96 1.01 1.07 1.07 1.05 1.11 1.15 1.16 1.21 1.25 1.25 1.29 1.34 1.37 1.28 1.26 1.33 1.40 1.50 1.53 1.53 1.54 1.41 1.38 1.40 1.39 1.36 1.29 1.23 1.19 1.24
0.97 1.02 1.04 1.08 1.10 1.09 1.06 0.97 0.94 0.98 1.04 1.11 1.16 1.18 1.19 1.18 1.21 1.22 1.25 1.33 1.34 1.24 1.17 1.21 1.34 1.49 1.49 1.36 1.28 1.25 1.28 1.31 1.38 1.48 1.45 1.35 1.23 1.21
0.91 1.07 1.10 1.09 1.05 1.03 0.99 0.94 0.88 0.85 0.89 1.01 1.15 1.26 1.27 1.26 1.28 1.33 1.31 1.27 1.25 1.25 1.19 1.15 1.24 1.42 1.47 1.24 1.06 1.04 1.07 1.11 1.24 1.33 1.38 1.31 1.19 1.20
0.86 0.95 0.97 0.97 0.92 0.88 0.83 0.80 0.82 0.82 0.83 0.88 0.92 1.03 1.19 1.29 1.36 1.39 1.43 1.46 1.45 1.41 1.34 1.21 1.16 1.25 1.39 1.33 1.15 0.97 0.96 1.03 1.16 1.23 1.24 1.27 1.24 1.27
0.76 0.77 0.74 0.74 0.75 0.75 0.74 0.78 0.83 0.82 0.83 0.86 0.86 0.88 0.98 1.14 1.31 1.41 1.46 1.56 1.53 1.49 1.46 1.33 1.29 1.47 1.43 1.44 1.36 1.05 0.90 1.00 1.12 1.15 1.19 1.31 1.31 1.24
0.70 0.71 0.73 0.72 0.70 0.70 0.73 0.77 0.85 0.88 0.85 0.88 0.93 0.95 1.03 1.10 1.15 1.26 1.42 1.47 1.39 1.33 1.33 1.33 1.39 1.48 1.47 1.53 1.43 1.20 1.06 1.02 1.10 1.20 1.25 1.32 1.32 1.30
0.67 0.69 0.72 0.73 0.71 0.75 0.77 0.79 0.84 0.89 0.89 0.89 0.90 0.97 1.04 1.13 1.18 1.21 1.25 1.30 1.35 1.38 1.38 1.38 1.39 1.41 1.44 1.49 1.55 1.48 1.33 1.22 1.19 1.20 1.20 1.34 1.32 1.18